Location: *
(50.3440°N, 18.6237°E)
Time: 16:48:36
(UTC+00:00)

Meteor 1-20 Rocket - Pass Details

Date: 30 November 2020
Orbit: 819 x 892 km, 81.2° (Epoch: 17 January)

Event Time Altitude Azimuth Distance (km) Brightness Sun altitude
Rises 16:03:46 0° 347° (NNW) 3,518 7.4 -11.9°
Reaches altitude 10° 16:06:15 10° 348° (NNW) 2,574 6.6 -12.3°
Maximum altitude 16:12:08 87° 76° (ENE) 899 4.3 -13.2°
Drops below altitude 10° 16:17:58 10° 169° (SSE) 2,540 6.8 -14.1°
Sets 16:20:23 0° 169° (S) 3,467 7.5 -14.4°
